Погода в Томторе

Россия / Республика Саха (Якутия)     62°09′02″N   130°02′59″E
темп.,
°C
ветер,
м/с
пор.,
м/с
влажн.,
%
обл.,
%
осадки,
мм/ч
давл.,
гПа
погр.,
м
18 января, пн
пн1800:00−40з1297100 0.0 103344
03:00−43зюз1198100 0.1 103318
06:00−43юз1199100 0.0 103418
09:00−45ююз1199100 0.0 103318
12:00−44ю119768 0.0 103351
15:00−46ю129863 0.0 103218
18:00−48ююв119854 0.0 103218
21:00−49ю119955 0.0 103118
19 января, вт
вт1900:00−49юв119956 0.0 103018
03:00−50ююв119956 0.0 103018
06:00−50вюв119855 0.0 103018
09:00−50юв119855 0.0 102918
12:00−46юв119555 0.0 102935
15:00−47в119753 0.0 102818
18:00−47вюв129772 0.0 102818
21:00−47в129645 0.0 102718
20 января, ср
ср2000:00−47в12962 0.0 102718
03:00−46в22961 0.0 102619
06:00−46в229618 0.0 102518
09:00−46в229530 0.0 102518
12:00−41в239282 0.0 1024125
15:00−39всв239391 0.0 102477
18:00−40в2293100 0.0 102522
21:00−39всв1192100 0.0 102518
21 января, чт
чт2100:00−39ссв1194100 0.0 102518
03:00−41сз119699 0.0 102618
06:00−42зсз119785 0.0 102718
09:00−42зюз119780 0.0 102818
12:00−39зюз129479 0.0 102963
15:00−39зюз239376 0.0 103029
18:00−42з239278 0.0 103236
21:00−45з239379 0.0 103321
22 января, пт
пт2200:00−46зюз229495 0.0 103318
03:00−47зюз229491 0.0 103418
06:00−48зюз129469 0.0 103418
09:00−48юз119568 0.0 103418
12:00−45юз119461 0.0 103455
15:00−46ююз119563 0.0 103418
18:00−48ююз119772 0.0 103418
21:00−49юв009864 0.0 103418